Location: Newark
(9.4667°S, 159.8167°E)
Time: 05:52:31
(UTC+00:00)

Envisat - Visible Passes

Search period start: 18 October 2019 00:00
Search period end: 28 October 2019 00:00
Orbit: 764 x 766 km, 98.1° (Epoch: 17 October)

Date Brightness Start Highest point End Pass type
(mag) Time Alt. Az. Time Alt. Az. Time Alt. Az.
18 Oct 4.4 08:28:55 10° S 08:33:39 39° WSW 08:38:20 10° NW visible
19 Oct 2.9 07:51:54 10° SSE 07:57:00 74° ENE 08:02:03 10° N visible
20 Oct 5.7 08:55:27 10° SSW 08:59:00 19° WSW 09:02:33 10° WNW visible
21 Oct 3.8 08:17:28 10° S 08:22:25 53° WSW 08:27:20 10° NNW visible
22 Oct 3.1 07:40:47 10° SSE 07:45:45 53° ENE 07:50:41 10° N visible
23 Oct 5.2 08:43:38 10° SSW 08:47:48 26° WSW 08:51:57 10° NW visible
24 Oct 3.3 08:06:07 10° S 08:11:12 73° WSW 08:16:15 10° NNW visible
25 Oct 3.4 07:29:46 10° SSE 07:34:31 39° E 07:39:12 10° N visible
25 Oct 6.2 09:11:05 10° SW 09:13:08 12° WSW 09:15:12 10° W visible
26 Oct 4.7 08:32:00 10° SSW 08:36:36 35° WSW 08:41:10 10° NW visible
27 Oct 2.9 07:54:51 10° SSE 07:59:57 83° ENE 08:05:02 10° N visible
